EW8125 Weather Reports


time (UTC)temp
C
wind
direction
speed
KPH
gust
KPH
rain 1hr
cm
rain 24hr
cm
rain mn
cm
humidity
%
barometer
mb
20260505184803 11 125 0.0 3.2 0.00 0.00 0.00 76 1013.0
20260505184503 11 122 0.0 3.2 0.00 0.00 0.00 76 1013.0
20260505184203 11 217 0.0 1.6 0.00 0.00 0.00 76 1013.0
20260505183904 11 0 0.0 0.0 0.00 0.00 0.00 75 1013.0
20260505183603 11 0 0.0 0.0 0.00 0.00 0.00 75 1013.0
20260505183514 11 0 0.0 0.0 0.00 0.00 0.00 75 1013.1
20260505183003 11 0 0.0 0.0 0.00 0.00 0.00 77 1013.0
20260505182913 12 0 0.0 0.0 0.00 0.00 0.00 77 1012.9
20260505182403 12 0 0.0 0.0 0.00 0.00 0.00 76 1012.9
20260505182103 12 121 0.0 1.6 0.00 0.00 0.00 75 1013.0
20260505181803 12 38 0.0 1.6 0.00 0.00 0.00 75 1013.0
20260505181503 12 50 0.0 1.6 0.00 0.00 0.00 75 1012.9
20260505181412 12 50 0.0 1.6 0.00 0.00 0.00 74 1012.9
20260505180903 12 57 0.0 1.6 0.00 0.00 0.00 72 1013.0
20260505180814 12 65 0.0 1.6 0.00 0.00 0.00 72 1013.1
20260505180514 12 78 0.0 1.6 0.00 0.00 0.00 74 1013.0
20260505180003 12 77 0.0 1.6 0.00 0.00 0.00 73 1013.0
20260505175703 12 74 0.0 1.6 0.00 0.00 0.00 75 1013.0
20260505175403 12 70 0.0 1.6 0.00 0.00 0.00 73 1013.0
20260505175103 12 83 0.0 3.2 0.00 0.00 0.00 73 1013.1
20260505174803 12 85 0.0 3.2 0.00 0.00 0.00 73 1013.0
20260505174503 12 87 0.0 3.2 0.00 0.00 0.00 71 1013.0
20260505174412 13 89 0.0 3.2 0.00 0.00 0.00 72 1013.0
20260505173903 13 226 0.0 1.6 0.00 0.00 0.00 72 1013.1
20260505173814 13 226 0.0 1.6 0.00 0.00 0.00 71 1013.1
20260505173514 13 226 0.0 1.6 0.00 0.00 0.00 71 1013.1
20260505173003 13 0 0.0 0.0 0.00 0.00 0.00 70 1013.0
20260505172703 13 75 0.0 1.6 0.00 0.00 0.00 70 1013.0
20260505172403 13 75 0.0 1.6 0.00 0.00 0.00 72 1013.1
20260505172103 13 75 0.0 1.6 0.00 0.00 0.00 74 1013.1
20260505172012 13 75 0.0 1.6 0.00 0.00 0.00 74 1013.1
20260505171503 13 0 0.0 0.0 0.00 0.00 0.00 73 1013.2
20260505171203 13 0 0.0 0.0 0.00 0.00 0.00 73 1013.1
20260505170903 13 0 0.0 0.0 0.00 0.00 0.00 73 1013.2
20260505170603 13 0 0.0 0.0 0.00 0.00 0.00 73 1013.1
20260505170513 13 0 0.0 0.0 0.00 0.00 0.00 72 1013.1
20260505170003 13 194 0.0 1.6 0.00 0.00 0.00 72 1013.2
20260505165703 13 194 0.0 1.6 0.00 0.00 0.00 73 1013.1
20260505165403 13 0 0.0 0.0 0.00 0.00 0.00 71 1013.1
20260505165103 13 237 0.0 1.6 0.00 0.00 0.00 68 1013.2
20260505164803 13 237 0.0 1.6 0.00 0.00 0.00 67 1013.1
20260505164503 13 237 0.0 1.6 0.00 0.00 0.00 67 1013.2
20260505164204 13 236 0.0 1.6 0.00 0.00 0.00 67 1013.1
20260505164114 14 236 0.0 1.6 0.00 0.00 0.00 67 1013.1
20260505163813 14 236 0.0 1.6 0.00 0.00 0.00 67 1013.1
20260505163303 15 236 0.0 1.6 0.00 0.00 0.00 65 1013.2
20260505163003 15 237 0.0 1.6 0.00 0.00 0.00 67 1013.1
20260505162703 15 237 0.0 1.6 0.00 0.00 0.00 65 1013.1
20260505162403 15 210 0.0 1.6 0.00 0.00 0.00 65 1013.1
20260505162103 15 208 0.0 1.6 0.00 0.00 0.00 65 1013.1
20260505161803 15 216 0.0 1.6 0.00 0.00 0.00 65 1013.1
20260505161503 15 216 0.0 1.6 0.00 0.00 0.00 66 1013.1
20260505161203 15 231 0.0 1.6 0.00 0.00 0.00 64 1013.1
20260505160903 15 231 0.0 1.6 0.00 0.00 0.00 62 1013.1
20260505160603 16 231 0.0 1.6 0.00 0.00 0.00 61 1013.1
20260505160303 16 231 0.0 1.6 0.00 0.00 0.00 60 1013.1
20260505153303 17 107 0.0 3.2 0.00 0.00 0.00 59 1013.4
20260505153003 16 81 0.0 3.2 0.00 0.00 0.00 60 1013.3
20260505152913 16 99 0.0 3.2 0.00 0.00 0.00 57 1013.4
20260505152403 16 65 0.0 3.2 0.00 0.00 0.00 62 1013.4
20260505152103 16 109 0.0 1.6 0.00 0.00 0.00 63 1013.3
20260505151803 16 108 0.0 1.6 0.00 0.00 0.00 61 1013.4
20260505151503 16 120 0.0 3.2 0.00 0.00 0.00 63 1013.3
20260505151203 16 124 0.0 3.2 0.00 0.00 0.00 63 1013.4
20260505150903 16 116 0.0 3.2 0.00 0.00 0.00 60 1013.3
20260505150603 16 108 0.0 3.2 0.00 0.00 0.00 60 1013.4
20260505150303 16 93 0.0 3.2 0.00 0.00 0.00 60 1013.4
20260505140603 16 164 0.0 3.2 0.00 0.00 0.00 65 1013.6
20260505140303 16 140 0.0 4.8 0.00 0.00 0.00 66 1013.5
20260505124803 17 265 0.0 6.4 0.00 0.00 0.00 62 1013.6
20260505124713 17 145 0.0 3.2 0.00 0.00 0.00 62 1013.6
20260505124203 17 312 0.0 1.6 0.00 0.00 0.00 62 1013.7
20260505123903 17 351 0.0 1.6 0.00 0.00 0.00 60 1013.8
20260505123605 17 321 0.0 1.6 0.00 0.00 0.00 59 1013.7
20260505123303 17 87 0.0 1.6 0.00 0.00 0.00 59 1013.8
20260505123213 17 80 0.0 1.6 0.00 0.00 0.00 62 1013.7
20260505122703 16 131 0.0 1.6 0.00 0.00 0.00 62 1013.7
20260505122403 16 253 0.0 1.6 0.00 0.00 0.00 62 1013.7
20260505122103 16 267 0.0 1.6 0.00 0.00 0.00 63 1013.7
20260505121803 16 132 0.0 3.2 0.00 0.00 0.00 65 1013.7
20260505121504 16 101 0.0 4.8 0.00 0.00 0.00 64 1013.7
20260505121203 16 81 0.0 4.8 0.00 0.00 0.00 63 1013.8
20260505120903 15 50 0.0 4.8 0.00 0.00 0.00 65 1013.7
20260505120603 15 27 0.0 3.2 0.00 0.00 0.00 65 1013.7
20260505120303 15 21 1.6 3.2 0.00 0.00 0.00 63 1013.7
20260505120004 15 53 0.0 3.2 0.00 0.00 0.00 62 1013.7
20260505115913 15 3 0.0 3.2 0.00 0.00 0.00 62 1013.7
20260505115403 15 267 0.0 1.6 0.00 0.00 0.00 66 1013.8
20260505115103 15 262 0.0 1.6 0.00 0.00 0.00 63 1013.7
20260505114803 15 256 0.0 1.6 0.00 0.00 0.00 63 1013.7
20260505114712 15 256 0.0 1.6 0.00 0.00 0.00 62 1013.7
20260505114203 15 153 0.0 1.6 0.00 0.00 0.00 62 1013.7
20260505113903 15 161 0.0 1.6 0.00 0.00 0.00 62 1013.7
20260505113603 16 241 0.0 3.2 0.00 0.00 0.00 61 1013.7
20260505113303 15 237 0.0 3.2 0.00 0.00 0.00 61 1013.7
20260505113213 15 237 0.0 3.2 0.00 0.00 0.00 61 1013.7
20260505112703 15 106 0.0 3.2 0.00 0.00 0.00 66 1013.6
20260505112403 15 166 0.0 3.2 0.00 0.00 0.00 62 1013.7
20260505112103 15 173 0.0 3.2 0.00 0.00 0.00 60 1013.7
20260505111803 15 132 0.0 3.2 0.00 0.00 0.00 62 1013.7
20260505111503 15 113 0.0 3.2 0.00 0.00 0.00 59 1013.7
20260505111204 15 71 0.0 3.2 0.00 0.00 0.00 60 1013.7
20260505110903 16 21 0.0 3.2 0.00 0.00 0.00 57 1013.7
20260505110605 16 305 0.0 3.2 0.00 0.00 0.00 59 1013.7
20260505110303 16 305 0.0 3.2 0.00 0.00 0.00 58 1013.8
20260505102103 16 89 1.6 6.4 0.00 0.00 0.00 59 1014.1
20260505101803 16 84 1.6 6.4 0.00 0.00 0.00 56 1014.0
20260505101714 16 68 0.0 4.8 0.00 0.00 0.00 56 1014.0
20260505101203 16 119 0.0 4.8 0.00 0.00 0.00 63 1014.1
20260505100903 16 116 0.0 4.8 0.00 0.00 0.00 59 1014.2
20260505100603 16 96 0.0 6.4 0.00 0.00 0.00 58 1014.1
20260505100303 16 69 0.0 6.4 0.00 0.00 0.00 60 1014.1
20260505100003 16 69 0.0 6.4 0.00 0.00 0.00 61 1014.1
20260505095703 16 100 0.0 6.4 0.00 0.00 0.00 58 1014.1
20260505095612 16 104 0.0 6.4 0.00 0.00 0.00 60 1014.1
20260505095314 16 101 0.0 6.4 0.00 0.00 0.00 60 1014.1
20260505094803 16 90 0.0 9.7 0.00 0.00 0.00 60 1014.0
20260505094503 16 90 0.0 9.7 0.00 0.00 0.00 59 1014.1
20260505094413 16 102 0.0 9.7 0.00 0.00 0.00 62 1014.1
20260505093903 16 86 0.0 4.8 0.00 0.00 0.00 61 1014.1
20260505093603 16 74 1.6 6.4 0.00 0.00 0.00 60 1014.1
20260505093513 16 81 1.6 6.4 0.00 0.00 0.00 59 1014.1
20260505093003 16 97 1.6 6.4 0.00 0.00 0.00 58 1014.2
20260505092703 16 165 0.0 6.4 0.00 0.00 0.00 59 1014.1
20260505092403 16 136 0.0 3.2 0.00 0.00 0.00 62 1014.2
20260505092103 16 143 0.0 1.6 0.00 0.00 0.00 61 1014.1
20260505091803 16 149 0.0 3.2 0.00 0.00 0.00 61 1014.1
20260505091503 16 149 0.0 3.2 0.00 0.00 0.00 61 1014.0
20260505091203 16 153 0.0 3.2 0.00 0.00 0.00 62 1014.0
20260505090903 16 158 0.0 3.2 0.00 0.00 0.00 61 1014.0
20260505090813 16 157 0.0 3.2 0.00 0.00 0.00 61 1014.0
20260505090303 17 152 0.0 3.2 0.00 0.00 0.00 60 1014.0
20260505090005 17 142 0.0 3.2 0.00 0.00 0.00 61 1014.1
20260505085703 17 142 0.0 3.2 0.00 0.00 0.00 62 1014.0
20260505085614 17 142 0.0 3.2 0.00 0.00 0.00 62 1014.0
20260505085103 17 139 0.0 9.7 0.00 0.00 0.00 62 1014.0
20260505084803 16 118 0.0 9.7 0.00 0.00 0.00 60 1014.1
20260505084503 16 341 0.0 6.4 0.00 0.00 0.00 64 1014.2
20260505084203 16 335 0.0 4.8 0.00 0.00 0.00 59 1014.3
20260505083903 16 346 0.0 3.2 0.00 0.00 0.00 62 1014.2
20260505083812 16 345 0.0 3.2 0.00 0.00 0.00 61 1014.2
20260505083303 16 331 0.0 3.2 0.00 0.00 0.00 62 1014.2
20260505083003 16 326 0.0 3.2 0.00 0.00 0.00 61 1014.2
20260505082703 16 309 0.0 3.2 0.00 0.00 0.00 63 1014.1
20260505082403 16 46 0.0 1.6 0.00 0.00 0.00 61 1014.1
20260505082103 16 29 0.0 1.6 0.00 0.00 0.00 63 1014.2
20260505081803 15 31 0.0 6.4 0.00 0.00 0.00 65 1014.2
20260505081503 15 21 0.0 6.4 0.00 0.00 0.00 66 1014.2
20260505081203 15 29 0.0 6.4 0.00 0.00 0.00 65 1014.4
20260505080904 15 32 0.0 3.2 0.00 0.00 0.00 67 1014.4
20260505080603 15 340 0.0 3.2 0.00 0.00 0.00 72 1014.4
20260505080303 14 324 0.0 3.2 0.00 0.00 0.00 70 1014.4
20260505080003 13 295 0.0 3.2 0.00 0.00 0.00 74 1014.6
20260505075914 13 294 0.0 3.2 0.00 0.00 0.00 72 1014.6
20260505075403 13 297 0.0 3.2 0.00 0.00 0.00 71 1014.5
20260505075103 12 299 0.0 1.6 0.00 0.00 0.00 76 1014.5
20260505074803 12 299 0.0 1.6 0.00 0.00 0.00 73 1014.5
20260505074503 12 305 0.0 1.6 0.00 0.00 0.00 76 1014.5
20260505074203 12 303 0.0 1.6 0.00 0.00 0.00 77 1014.5
20260505074112 12 303 0.0 1.6 0.00 0.00 0.00 77 1014.4
20260505073603 12 303 0.0 1.6 0.00 0.00 0.00 79 1014.5
20260505073303 11 296 0.0 1.6 0.00 0.00 0.00 79 1014.4
20260505073004 11 295 0.0 1.6 0.00 0.00 0.00 78 1014.4
20260505072703 11 295 0.0 1.6 0.00 0.00 0.00 76 1014.4
20260505072403 11 0 0.0 0.0 0.00 0.00 0.00 80 1014.3
20260505072103 11 0 0.0 0.0 0.00 0.00 0.00 78 1014.4
20260505071803 11 0 0.0 0.0 0.00 0.00 0.00 81 1014.3
20260505071503 11 0 0.0 0.0 0.00 0.00 0.00 82 1014.4
20260505071203 11 326 0.0 1.6 0.00 0.00 0.00 82 1014.4
20260505070903 10 326 0.0 1.6 0.00 0.00 0.00 82 1014.4
20260505070603 10 328 0.0 1.6 0.00 0.00 0.00 82 1014.4
20260505070303 10 330 0.0 1.6 0.00 0.00 0.00 83 1014.4
20260505070003 10 322 0.0 1.6 0.00 0.00 0.00 82 1014.5
20260505065703 10 320 0.0 1.6 0.00 0.00 0.00 84 1014.5
20260505065403 10 320 0.0 1.6 0.00 0.00 0.00 84 1014.4
20260505065103 10 0 0.0 0.0 0.00 0.00 0.00 86 1014.5
20260505065012 10 0 0.0 0.0 0.00 0.00 0.00 86 1014.5
20260505064503 10 0 0.0 0.0 0.00 0.00 0.00 87 1014.5
20260505064203 9 0 0.0 0.0 0.00 0.00 0.00 88 1014.5
20260505064114 10 0 0.0 0.0 0.00 0.00 0.00 88 1014.5
20260505063814 9 0 0.0 0.0 0.00 0.00 0.00 88 1014.6
20260505063513 9 0 0.0 0.0 0.00 0.00 0.00 88 1014.6
20260505063003 9 0 0.0 0.0 0.00 0.00 0.00 88 1014.5
20260505062703 9 0 0.0 0.0 0.00 0.00 0.00 88 1014.6
20260505062403 9 0 0.0 0.0 0.00 0.00 0.00 88 1014.6
20260505062313 9 0 0.0 0.0 0.00 0.00 0.00 88 1014.6
20260505061803 8 0 0.0 0.0 0.00 0.00 0.00 88 1014.5
20260505061503 8 0 0.0 0.0 0.00 0.00 0.00 88 1014.5
20260505061203 8 0 0.0 0.0 0.00 0.00 0.00 88 1014.4
20260505060903 8 0 0.0 0.0 0.00 0.00 0.00 87 1014.5
20260505060603 8 0 0.0 0.0 0.00 0.00 0.00 87 1014.5
20260505060304 8 0 0.0 0.0 0.00 0.00 0.00 87 1014.4
20260505060003 8 0 0.0 0.0 0.00 0.00 0.00 87 1014.4
20260505055703 8 0 0.0 0.0 0.00 0.00 0.00 87 1014.4
20260505055404 8 0 0.0 0.0 0.00 0.00 0.00 88 1014.4
20260505055103 8 0 0.0 0.0 0.00 0.00 0.00 87 1014.4
20260505054804 8 0 0.0 0.0 0.00 0.00 0.00 87 1014.4
20260505054503 8 0 0.0 0.0 0.00 0.00 0.00 87 1014.4
20260505054414 8 0 0.0 0.0 0.00 0.00 0.00 87 1014.4
20260505053903 8 0 0.0 0.0 0.00 0.00 0.00 87 1014.4
20260505053813 8 0 0.0 0.0 0.00 0.00 0.00 87 1014.4
20260505053303 8 0 0.0 0.0 0.00 0.00 0.00 87 1014.5
20260505053003 8 0 0.0 0.0 0.00 0.00 0.00 87 1014.4
20260505052703 8 0 0.0 0.0 0.00 0.00 0.00 86 1014.4
20260505052403 8 0 0.0 0.0 0.00 0.00 0.00 86 1014.5
20260505052103 8 0 0.0 0.0 0.00 0.00 0.00 86 1014.3
20260505051804 8 0 0.0 0.0 0.00 0.00 0.00 87 1014.3
20260505051504 8 0 0.0 0.0 0.00 0.00 0.00 87 1014.3
20260505051203 8 0 0.0 0.0 0.00 0.00 0.00 87 1014.3
20260505050905 8 0 0.0 0.0 0.00 0.00 0.00 87 1014.3
20260505050603 8 0 0.0 0.0 0.00 0.00 0.00 87 1014.3
20260505050305 8 0 0.0 0.0 0.00 0.00 0.00 87 1014.3
20260505041503 8 0 0.0 0.0 0.00 0.00 0.00 89 1014.0
20260505041203 8 0 0.0 0.0 0.00 0.00 0.00 89 1014.0
20260505040903 8 0 0.0 0.0 0.00 0.00 0.00 89 1013.9
20260505040603 8 0 0.0 0.0 0.00 0.00 0.00 90 1014.0
20260505040303 8 0 0.0 0.0 0.00 0.00 0.00 90 1014.1
20260505040005 8 0 0.0 0.0 0.00 0.00 0.00 90 1014.1
20260505035912 8 0 0.0 0.0 0.00 0.00 0.00 90 1014.1
20260505035403 8 303 0.0 1.6 0.00 0.00 0.00 91 1014.1
20260505035103 8 303 0.0 1.6 0.00 0.00 0.00 91 1014.0
20260505034803 8 0 0.0 0.0 0.00 0.00 0.00 91 1013.9
20260505034503 8 0 0.0 0.0 0.00 0.00 0.00 91 1013.8
20260505034203 8 0 0.0 0.0 0.00 0.00 0.00 92 1013.9
20260505033903 8 0 0.0 0.0 0.00 0.00 0.00 92 1013.9
20260505033603 8 0 0.0 0.0 0.00 0.00 0.00 92 1014.0
20260505033303 8 0 0.0 0.0 0.00 0.00 0.00 92 1014.0
20260505033003 8 0 0.0 0.0 0.00 0.00 0.00 92 1013.9
20260505032703 8 0 0.0 0.0 0.00 0.00 0.00 92 1014.1
20260505032404 8 0 0.0 0.0 0.00 0.00 0.00 92 1014.1
20260505032103 8 0 0.0 0.0 0.00 0.00 0.00 92 1014.2
20260505031803 8 0 0.0 0.0 0.00 0.00 0.00 92 1014.1
20260505031504 8 0 0.0 0.0 0.00 0.00 0.00 92 1014.2
20260505031413 8 0 0.0 0.0 0.00 0.00 0.00 92 1014.2
20260505030903 8 0 0.0 0.0 0.00 0.00 0.00 92 1014.3
20260505030603 7 0 0.0 0.0 0.00 0.00 0.00 92 1014.3
20260505030303 8 0 0.0 0.0 0.00 0.00 0.00 92 1014.3
20260505030003 8 0 0.0 0.0 0.00 0.00 0.00 93 1014.3
20260505025914 8 0 0.0 0.0 0.00 0.00 0.00 93 1014.3
20260505025404 8 0 0.0 0.0 0.00 0.00 0.00 93 1014.2
20260505025103 8 0 0.0 0.0 0.00 0.00 0.00 93 1014.1
20260505024804 8 0 0.0 0.0 0.00 0.00 0.00 93 1014.1
20260505024503 8 0 0.0 0.0 0.00 0.00 0.00 93 1014.1
20260505024413 8 0 0.0 0.0 0.00 0.00 0.00 93 1014.1
20260505023903 8 0 0.0 0.0 0.00 0.00 0.00 93 1014.1
20260505023603 8 0 0.0 0.0 0.00 0.00 0.00 93 1014.2
20260505023303 8 0 0.0 0.0 0.00 0.00 0.00 93 1014.2
20260505023003 8 0 0.0 0.0 0.00 0.00 0.00 93 1014.2
20260505022703 8 0 0.0 0.0 0.00 0.00 0.00 93 1014.2
20260505022403 8 0 0.0 0.0 0.00 0.00 0.00 92 1014.2
20260505022103 8 0 0.0 0.0 0.00 0.00 0.00 92 1014.2
20260505021803 8 0 0.0 0.0 0.00 0.00 0.00 92 1014.3
20260505021504 8 0 0.0 0.0 0.00 0.00 0.00 92 1014.4
20260505021203 8 0 0.0 0.0 0.00 0.00 0.00 92 1014.4
20260505020903 8 0 0.0 0.0 0.00 0.00 0.00 92 1014.3
20260505020603 8 0 0.0 0.0 0.00 0.00 0.00 92 1014.4
20260505020303 8 0 0.0 0.0 0.00 0.00 0.00 92 1014.4
20260505020003 8 0 0.0 0.0 0.00 0.00 0.00 92 1014.3
20260505015703 8 0 0.0 0.0 0.00 0.00 0.00 92 1014.3
20260505015403 8 0 0.0 0.0 0.00 0.00 0.00 92 1014.4
20260505015103 8 0 0.0 0.0 0.00 0.00 0.00 92 1014.5
20260505014803 8 0 0.0 0.0 0.00 0.00 0.00 92 1014.5
20260505014503 8 0 0.0 0.0 0.00 0.00 0.00 92 1014.5
20260505014203 8 0 0.0 0.0 0.00 0.00 0.00 92 1014.5
20260505013903 8 0 0.0 0.0 0.00 0.00 0.00 92 1014.6
20260505013814 8 303 0.0 1.6 0.00 0.00 0.00 92 1014.6
20260505013514 8 303 0.0 1.6 0.00 0.00 0.00 92 1014.6
20260505013213 8 303 0.0 1.6 0.00 0.00 0.00 92 1014.6
20260505012703 8 0 0.0 0.0 0.00 0.00 0.00 92 1014.6
20260505012404 8 0 0.0 0.0 0.00 0.00 0.00 92 1014.6
20260505012103 8 0 0.0 0.0 0.00 0.00 0.00 92 1014.6
20260505011803 8 0 0.0 0.0 0.00 0.00 0.00 92 1014.6
20260505011714 8 0 0.0 0.0 0.00 0.00 0.00 92 1014.7
20260505011203 8 0 0.0 0.0 0.00 0.00 0.00 92 1014.6
20260505011114 8 0 0.0 0.0 0.00 0.00 0.00 92 1014.6
20260505010603 8 0 0.0 0.0 0.00 0.00 0.00 92 1014.6
20260505010303 8 0 0.0 0.0 0.00 0.00 0.00 92 1014.6
20260505010003 8 0 0.0 0.0 0.00 0.00 0.00 92 1014.7
20260505005703 8 303 0.0 1.6 0.00 0.00 0.00 92 1014.7
20260505005403 8 303 0.0 1.6 0.00 0.00 0.00 92 1014.7
20260505005103 8 303 0.0 1.6 0.00 0.00 0.00 92 1014.6
20260505004803 8 303 0.0 1.6 0.00 0.00 0.00 92 1014.6
20260505004503 8 303 0.0 1.6 0.00 0.00 0.00 92 1014.7
20260505004203 8 0 0.0 0.0 0.00 0.00 0.00 92 1014.8
20260505003903 8 0 0.0 0.0 0.00 0.00 0.00 92 1014.8
20260505003603 8 0 0.0 0.0 0.00 0.00 0.00 92 1014.7
20260505003513 8 0 0.0 0.0 0.00 0.00 0.00 92 1014.7
20260505003003 8 0 0.0 0.0 0.00 0.00 0.00 92 1014.8
20260505002703 8 0 0.0 0.0 0.00 0.00 0.00 92 1014.8
20260505002403 8 303 0.0 1.6 0.00 0.00 0.00 92 1014.9
20260505002103 8 303 0.0 1.6 0.00 0.00 0.00 91 1014.9
20260505001803 8 303 0.0 1.6 0.00 0.00 0.00 91 1014.9
20260505001714 8 303 0.0 1.6 0.00 0.00 0.00 91 1014.9
20260505001204 8 303 0.0 1.6 0.00 0.00 0.00 91 1015.0
20260505001116 8 303 0.0 1.6 0.00 0.00 0.00 91 1015.0
20260505000603 8 299 0.0 1.6 0.00 0.00 0.00 91 1014.9
20260505000303 8 296 0.0 1.6 0.00 0.00 0.00 91 1015.0
20260505000003 8 296 0.0 1.6 0.00 0.00 0.00 91 1015.0
20260504235703 8 296 0.0 1.6 0.00 0.00 0.00 91 1015.0
20260504235403 8 296 0.0 1.6 0.00 0.00 0.00 91 1015.0
20260504235104 9 296 0.0 1.6 0.00 0.00 0.00 91 1015.0
20260504234803 9 296 0.0 1.6 0.00 0.00 0.00 91 1015.0
20260504234503 9 296 0.0 1.6 0.00 0.00 0.00 91 1015.0
20260504234203 9 0 0.0 0.0 0.00 0.00 0.00 91 1014.9
20260504233903 9 0 0.0 0.0 0.00 0.00 0.00 91 1014.9
20260504233603 9 0 0.0 0.0 0.00 0.00 0.00 91 1014.9
20260504233303 9 0 0.0 0.0 0.00 0.00 0.00 91 1014.9
20260504233003 9 0 0.0 0.0 0.00 0.00 0.00 91 1014.9
20260504232703 9 296 0.0 1.6 0.00 0.00 0.00 90 1014.9
20260504232403 9 296 0.0 1.6 0.00 0.00 0.00 90 1014.9
20260504232314 9 296 0.0 1.6 0.00 0.00 0.00 90 1014.9
20260504231803 9 296 0.0 1.6 0.00 0.00 0.00 90 1014.9
20260504231503 9 296 0.0 1.6 0.00 0.00 0.00 90 1014.8
20260504231413 9 0 0.0 0.0 0.00 0.00 0.00 90 1014.9
20260504230903 10 290 0.0 1.6 0.00 0.00 0.00 90 1014.9
20260504230603 10 290 0.0 1.6 0.00 0.00 0.00 90 1014.9
20260504230303 10 290 0.0 1.6 0.00 0.00 0.00 89 1014.9
20260504230004 10 290 0.0 1.6 0.00 0.00 0.00 89 1014.9
20260504225703 10 290 0.0 1.6 0.00 0.00 0.00 89 1014.9
20260504225403 10 290 0.0 1.6 0.00 0.00 0.00 88 1014.8
20260504225314 10 290 0.0 1.6 0.00 0.00 0.00 88 1014.8
20260504224805 10 290 0.0 1.6 0.00 0.00 0.00 88 1014.8
20260504224503 10 290 0.0 1.6 0.00 0.00 0.00 88 1014.8
20260504224203 10 290 0.0 1.6 0.00 0.00 0.00 88 1014.9
20260504223903 10 290 0.0 1.6 0.00 0.00 0.00 88 1015.0
20260504223603 10 295 0.0 1.6 0.00 0.00 0.00 88 1015.0
20260504223303 10 296 0.0 1.6 0.00 0.00 0.00 87 1015.0
20260504223004 10 301 0.0 1.6 0.00 0.00 0.00 87 1015.0
20260504222703 10 307 0.0 1.6 0.00 0.00 0.00 87 1015.0
20260504222403 10 307 0.0 1.6 0.00 0.00 0.00 87 1014.9
20260504222103 10 307 0.0 1.6 0.00 0.00 0.00 87 1015.0
20260504221803 10 307 0.0 1.6 0.00 0.00 0.00 87 1015.0
20260504221503 10 0 0.0 0.0 0.00 0.00 0.00 87 1014.9
20260504221203 10 0 0.0 0.0 0.00 0.00 0.00 88 1014.9
20260504220903 10 0 0.0 0.0 0.00 0.00 0.00 88 1015.0
20260504220603 11 0 0.0 0.0 0.00 0.00 0.00 88 1014.9
20260504220304 11 0 0.0 0.0 0.00 0.00 0.00 88 1014.9
20260504220214 11 0 0.0 0.0 0.00 0.00 0.00 88 1014.9
20260504215703 11 0 0.0 0.0 0.00 0.00 0.00 88 1014.9
20260504215403 11 0 0.0 0.0 0.00 0.00 0.00 88 1015.0
20260504215103 11 0 0.0 0.0 0.00 0.00 0.00 88 1015.0
20260504214803 11 0 0.0 0.0 0.00 0.00 0.00 88 1014.9
20260504214503 11 0 0.0 0.0 0.00 0.00 0.00 88 1014.9
20260504214203 11 0 0.0 0.0 0.00 0.00 0.00 88 1015.0
20260504213903 11 0 0.0 0.0 0.00 0.00 0.00 88 1015.0
20260504213812 11 0 0.0 0.0 0.00 0.00 0.00 88 1015.0
20260504213514 11 0 0.0 0.0 0.00 0.00 0.00 87 1015.0
20260504213003 11 0 0.0 0.0 0.00 0.00 0.00 87 1015.0
20260504212703 11 0 0.0 0.0 0.00 0.00 0.00 87 1015.1
20260504212403 11 0 0.0 0.0 0.00 0.00 0.00 87 1015.0
20260504212103 11 0 0.0 0.0 0.00 0.00 0.00 87 1015.0
20260504212013 11 0 0.0 0.0 0.00 0.00 0.00 87 1015.0
20260504211503 11 0 0.0 0.0 0.00 0.00 0.00 87 1015.0
20260504211203 11 0 0.0 0.0 0.00 0.00 0.00 86 1014.9
20260504211112 11 0 0.0 0.0 0.00 0.00 0.00 86 1015.0
20260504210603 11 0 0.0 0.0 0.00 0.00 0.00 86 1014.9
20260504210303 11 0 0.0 0.0 0.00 0.00 0.00 86 1014.9
20260504210003 11 297 0.0 1.6 0.00 0.00 0.00 86 1014.9
20260504205703 11 297 0.0 1.6 0.00 0.00 0.00 86 1015.0
20260504205403 11 297 0.0 1.6 0.00 0.03 0.00 86 1014.9
20260504205103 11 297 0.0 1.6 0.00 0.03 0.00 86 1015.0
20260504204803 11 297 0.0 1.6 0.00 0.03 0.00 86 1014.9
20260504204503 11 0 0.0 0.0 0.00 0.03 0.00 86 1014.8
20260504204203 12 0 0.0 0.0 0.00 0.03 0.00 86 1014.9
20260504204112 12 0 0.0 0.0 0.00 0.03 0.00 86 1014.9
20260504203814 12 0 0.0 0.0 0.00 0.05 0.00 86 1014.9
20260504203304 12 0 0.0 0.0 0.00 0.08 0.00 86 1014.9
20260504203003 12 0 0.0 0.0 0.00 0.13 0.00 86 1014.8
20260504202703 12 0 0.0 0.0 0.00 0.15 0.00 86 1014.7
20260504202403 12 0 0.0 0.0 0.00 0.15 0.00 86 1014.7
20260504202103 12 0 0.0 0.0 0.00 0.18 0.00 86 1014.7
20260504201804 12 0 0.0 0.0 0.00 0.20 0.00 85 1014.8
20260504201503 12 0 0.0 0.0 0.00 0.23 0.00 85 1014.8
20260504201203 12 0 0.0 0.0 0.00 0.23 0.00 85 1014.7
20260504200903 12 0 0.0 0.0 0.00 0.25 0.00 84 1014.7
20260504200814 12 0 0.0 0.0 0.00 0.28 0.00 84 1014.7
20260504200303 12 0 0.0 0.0 0.00 0.33 0.00 84 1014.7
20260504200003 12 0 0.0 0.0 0.00 0.38 0.00 84 1014.6
20260504195703 12 66 0.0 3.2 0.00 0.43 0.00 84 1014.6
20260504195404 12 62 0.0 3.2 0.00 0.48 0.00 83 1014.5
20260504195103 12 62 0.0 3.2 0.00 0.58 0.00 83 1014.6
20260504194803 12 62 0.0 3.2 0.00 0.66 0.00 82 1014.5
20260504194503 12 56 0.0 3.2 0.00 0.79 0.00 83 1014.5
20260504194203 12 166 0.0 3.2 0.00 0.89 0.00 82 1014.4
20260504193903 12 165 0.0 3.2 0.00 0.97 0.00 82 1014.4
20260504193816 12 165 0.0 3.2 0.00 0.99 0.00 82 1014.4
20260504193513 12 165 0.0 3.2 0.00 1.09 0.00 82 1014.3
20260504193003 12 165 0.0 1.6 0.00 1.19 0.00 82 1014.2
20260504192915 12 130 0.0 1.6 0.00 1.22 0.00 82 1014.2
20260504192403 12 45 0.0 1.6 0.00 1.27 0.00 82 1014.2
20260504192103 12 45 0.0 1.6 0.00 1.32 0.00 82 1014.2
20260504191803 12 16 0.0 1.6 0.00 1.35 0.00 82 1014.1
20260504191503 12 351 0.0 1.6 0.00 1.37 0.00 82 1014.1
20260504191203 12 5 0.0 1.6 0.00 1.37 0.00 83 1014.1
20260504190903 12 338 0.0 1.6 0.00 1.37 0.00 83 1014.1
20260504190603 13 338 0.0 1.6 0.00 1.37 0.00 83 1014.1
20260504190303 13 338 0.0 1.6 0.00 1.37 0.00 82 1014.1
20260504190003 13 0 0.0 0.0 0.00 1.37 0.00 82 1014.1
20260504185703 13 0 0.0 0.0 0.00 1.37 0.00 82 1014.1
20260504185613 13 0 0.0 0.0 0.00 1.37 0.00 82 1014.1
20260504185104 13 0 0.0 0.0 0.00 1.37 0.00 82 1014.1